Regional Weather Roundup
Issued by NWS Wakefield, VA

Home | Current Version | Previous Version | Text Only | Print | Product List | Glossary Off
Versions: 1 2 3 4 5 6 7 8 9 10 11 12 13 14 15 16 17 18 19 20 21 22 23 24 25 26 27

000
ASUS41 KAKQ 270015
RWRAKQ

REGIONAL WEATHER ROUNDUP
NATIONAL WEATHER SERVICE WAKEFIELD VA
800 PM EDT MON JUN 26 2017

Note: "fair" indicates few or no clouds below 12,000 feet with no
significant weather and/or obstructions to visibility. * = Denotes
station may not report precipitation (e.g., rain,snow,etc.),
thunder or fog.

VAZ042-051-052>054-056-270100-
NORTHERN VIRGINIA

CITY           SKY/WX    TMP DP  RH WIND       PRES   REMARKS
WASH NATIONAL  PTCLDY    79  55  43 S13       29.99S
DULLES         PTCLDY    77  49  37 S6        29.99S
FORT BELVOIR   PTCLDY    77  54  45 SE6       29.98S
QUANTICO       CLEAR     80  55  42 SW7       29.99S
FREDERICKSBRG* CLEAR     80  53  40 S6        29.99R
STAFFORD*      CLEAR     76  52  42 CALM      30.03S
WARRENTON      PTCLDY    77  49  37 S3        29.99S
CULPEPER*      CLEAR     77  55  45 S3        30.00R
MANASSAS*      MOCLDY    75  55  50 S5        29.98F
LEESBURG*      PTCLDY    79  52  38 SW3       30.00S
WINCHESTER     MOCLDY    73  52  46 W5        30.00S
FRONT ROYAL*   CLOUDY    73  54  49 S3        29.99S
LURAY*         CLOUDY    75  55  50 CALM      30.00R
$$

VAZ048-049-060>072-079>083-270100-
CENTRAL AND SOUTH CENTRAL VIRGINIA

CITY           SKY/WX    TMP DP  RH WIND       PRES   REMARKS
RICHMOND       PTCLDY    77  54  44 SW8       30.00S
CHESTERFIELD*  FAIR      77  57  50 SW3       30.01F
PETERSBURG*    CLEAR     69  62  77 CALM      30.02S
HANOVER        CLEAR     78  50  37 SW6       30.01F
TAPPAHANNOCK*  CLEAR     74  59  59 CALM      30.01S
QUINTON*       FAIR      78  59  51 S5        30.00S
CHARLOTTSVILLE CLEAR     76  53  44 SW7       30.00S
GORDONSVILLE*  CLEAR     77  54  44 CALM      30.00R
ORANGE*        CLEAR     75  52  43 CALM      30.00R
LOUISA*        CLEAR     79  59  50 CALM      30.00S
BUMPASS*       FAIR      75  56  51 CALM      30.01R
FARMVILLE*     CLEAR     74  51  45 CALM      30.00F
CREWE*         FAIR      73  58  57 CALM      30.02S
FORT PICKETT*  FAIR      73  53  49 S8        30.02F
CHASE CITY*    FAIR      77  61  56 CALM      30.03S
CLARKSVILLE*   FAIR      73  64  73 CALM      30.02S
SOUTH HILL*    CLEAR     71  62  71 CALM      30.09S
LAWRENCEVILLE* FAIR      72  57  60 CALM      30.03S
EMPORIA*       CLEAR     75  55  50 CALM      30.04R
$$

VAZ088>098-270100-
SOUTHEAST VIRGINIA

CITY           SKY/WX    TMP DP  RH WIND       PRES   REMARKS
NORFOLK        CLEAR     78  51  38 SE10      30.02S
VIRGINIA BEACH PTCLDY    74  56  53 SE7       30.02S
NORFOLK NAVAL  PTCLDY    77  50  38 SE8       30.03S
WEST POINT*    PTCLDY    80  56  44 CALM      30.02S
SALUDA*        FAIR      75  61  61 S6        30.00S
NEWPORT NEWS   CLEAR     78  57  48 SE9       30.01S
LANGLEY AFB    PTCLDY    78  59  52 SE8       30.01S
FORT EUSTIS    CLEAR     80  56  44 SW3       29.99S
WILLIAMSBURG*  PTCLDY    81  61  50 CALM      30.01S
HR EXEC AP*    FAIR      75  57  53 SE5       30.00R
FRANKLIN*      CLEAR     79  55  44 CALM      30.02S
US460-WAKEFLD  CLEAR     76  62  62 CALM      30.01S
$$

VAZ020-022-025-037-045-270100-
WEST CENTRAL AND SOUTHWEST VIRGINIA

CITY           SKY/WX    TMP DP  RH WIND       PRES   REMARKS
STAUNTON*      CLEAR     73  46  37 W5        30.04S
WAYNESBORO*    CLEAR     74  49  41 CALM      30.04R
HOT SPRINGS VA CLEAR     63  32  31 W6        30.14S
LYNCHBURG      CLEAR     74  54  49 S5        30.03S
DANVILLE       PTCLDY    76  61  59 CALM      30.03S
SOUTH BOSTON*  FAIR      77  64  65 CALM      30.03S
MARTINSVILLE   MOCLDY    72  63  73 CALM      30.06S
ROANOKE        PTCLDY    76  47  35 NW9       30.05S
BLACKSBURG     CLEAR     72  47  41 NW3       30.12R
DUBLIN*        PTCLDY    73  40  29 NW6       30.10S
MARION*        CLOUDY    70  51  52 W6        30.13F
HILLSVILLE*    PTCLDY    70  46  41 CALM      30.11S
RICHLANDS*     FAIR      68  17  14 NW8       30.13S
WISE*          MOCLDY    70  48  46 CALM      30.16R
ABINGDON*      CLEAR     73  53  49 W7        30.10S
$$

MDZ021>025-VAZ099-100-270100-
SOUTHERN MARYLAND AND THE DELMARVA PENINSULA

CITY           SKY/WX    TMP DP  RH WIND       PRES   REMARKS
PATUXENT RIVER PTCLDY    76  57  51 S7        30.00F
BAY BRIDGE APT CLEAR     79  52  38 S3        29.99F
LEONARDTOWN    CLEAR     73  57  56 SE3       30.02S
DOVER          CLEAR     77  53  43 CALM      29.98F
GEORGETOWN     CLEAR     79  50  36 CALM      30.01F
EASTON         PTCLDY    81  50  34 CALM      30.03F
CAMBRIDGE      CLEAR     77  57  50 S5        30.00F
SALISBURY      PTCLDY    76  56  49 S3        30.01S
OCEAN CITY     PTCLDY    74  56  53 SW9       30.02F
WALLOPS ISLAND CLEAR     73  62  68 S10       30.03F
ACCOMACK*      CLEAR     75  57  53 S6        30.02S
$$

NCZ012>017-030>032-270100-
NORTH CENTRAL AND EASTERN NORTH CAROLINA

CITY           SKY/WX    TMP DP  RH WIND       PRES   REMARKS
ROANOKE RAPIDS FAIR      73  64  73 CALM      30.02F
RALEIGH        PTCLDY    76  55  48 W3        30.04S
ELIZABETH CITY CLEAR     77  57  50 SE6       30.02S
AHOSKIE*         N/A     74  62  67 CALM      30.03R
EDENTON*       PTCLDY    78  60  52 CALM      30.03R
CURRITUCK*     CLEAR     77  58  51 CALM      30.03S
KILL DEVIL HLS CLEAR     74  62  65 E5        30.02S
MANTEO         CLEAR     75  59  57 SE7       30.03S
CAPE HATTERAS  NOT AVBL
TARBORO*       NOT AVBL
GOLDSBORO      CLEAR     82  52  35 W3        30.01S
WASHINGTON     PTCLDY   N/A N/A N/A SE5       30.03R
GREENVILLE     CLEAR     81  59  47 CALM      30.04S
NEW BERN       CLEAR     77  64  64 SE5       30.03F
WILMINGTON     CLEAR     79  65  62 SE5       30.03S
$$

VAZ048-270100-
ELSEWHERE

CITY           SKY/WX    TMP DP  RH WIND       PRES   REMARKS
HARRISBURG PA  PTCLDY    75  53  46 SW5       29.97S
BALTIMORE      PTCLDY    77  49  37 SE5       29.98S
ANNAPOLIS      CLEAR     74  57  55 S8        29.99S
ANDREWS AFB    CLEAR     77  51  41 S8        29.99S
PHILADELPHIA   PTCLDY    77  49  37 S8        29.99F
HENDERSON NC   CLEAR     70  57  62 CALM      30.04S
GREENSBORO     CLOUDY    76  57  51 SW7       30.04S
ROCKY MOUNT    CLEAR     76  62  62 CALM      30.02F
$$

VAZ100-270100-
MARINE

STATION/POSITION TIME  TEMP    WIND        PRES    WAVE   SWELL
                       AIR SEA DIR/SP/G            HT/PER HT/PER
                 (UTC) (F)     (DEG/KT/KT) (MB)    (FT/S) (FT/S)
BRANDYWINE LGT   2348          170/ 10/ 10 1016.6F
CAPE MAY NJ      2348   71 71  150/  8/ 10 1016.2F
LEWES DE         2348   77 72  160/  5/  6 1016.2F
15NM E FENWICK I 2350   71 69  180/ 10/ 10 1017.1F   2/ 7   2/ 7
OCEAN-CITY-INLET 2348   71 75  220/  8/  9 1016.9F
WACHAPREAGUE VA  2348   75 82  140/ 11/ 13 1016.3F
THOMAS POINT MD  0000   78 78  170/ 13/ 14   N/A
GOOSES REEF MD   2350   79     190/ 14/ 16 1016.3F
COVE POINT MD    2348   77     190/ 13/ 15 1016.4F
SOLOMONS ISLAND  2348          160/  8/ 10   N/A
BISHOPS HEAD MD  2348   78 83  150/  7/  8 1016.1F
PINEY POINT MD   2342          160/ 12/ 13   N/A
POTOMAC MD       2350   78     160/ 10/ 12 1014.9F
CAMBRIDGE MD     2348   78 82              1016.6F
LEWISETTA VA     2348   78 81  140/  7/  8 1015.6F
RAPPAHANNOCK LGT 2348          150/ 14/ 15 1016.9F
STINGRAY PT      2350   78     200/ 14/ 16 1016.3F
YORK RVR RNG VA  2348   77     160/ 17/ 18 1016.4F
YORKTOWN VA      2348   79 80  140/  9/ 12 1015.8R
JAMESTOWN VA     2350   81     200/  6/  6   N/A
DOMINION TERM VA 2348   78     150/ 14/ 16 1016.3S
KIPTOPEKE VA     2348      78  150/ 10/ 12   N/A
CHES BAY BRIDGE  2348   77 78  170/ 12/ 14 1016.4F
CAPE HENRY VA    2348   75     140/  9/ 12   N/A
WILLOUBY STN VA  2348   78     140/ 13/ 14 1016.2F
S CRANEY ISL VA  2348   78     160/ 12/ 15 1016.2S
CAPE HENRY BUOY  2330      73                N/A     1/ 8
1ST LANDING BUOY 2350   77                 1016.3F
CAPE CHARLES BUO 2351      71                N/A     1/ 8
64NM E OF VA BCH 2350   75 76   90/  6/  6 1017.4F   1/ 8   2/ 8
DUCK PIER NC     2348   75 74  110/  6/  6 1016.5R
44100 DUCK FRF   2335      73                N/A     1/ 8
OREGON INLET NC  2348           50/  5/  6 1016.9S
HATTERAS NC      2348   78 78  120/  3/  4 1016.6F
DIAMOND SHLS NC  2350   78 81  240/  4/  6 1016.6R   2/ 8   2/ 8
CAPE LOOKOUT NC  0000   77      80/  3/  4 1016.3S
$$




USA.gov is the U.S. government's official web portal to all federal, state and local government web resources and services.